Location: Charlottesville
(38.0290°N, 78.4770°W)
Time: 08:35:26
(UTC-04:00)

Vanguard 2 - All Passes

Search period start: 22 April 2018 00:00
Search period end: 02 May 2018 00:00
Orbit: 553 x 2939 km, 32.9° (Epoch: 22 April)

Date Brightness Start Highest point End Pass type
(mag) Time Alt. Az. Time Alt. Az. Time Alt. Az.
22 Apr - 00:27:19 10° WSW 00:34:56 47° S 00:39:48 10° E visible
22 Apr - 02:37:52 10° W 02:43:05 43° S 02:47:01 10° ESE night (unlit)
22 Apr - 04:48:09 10° WSW 04:50:37 15° SSW 04:53:01 10° SSE visible
22 Apr - 20:26:51 10° S 20:34:19 18° SSE 20:40:08 10° ESE visible
22 Apr - 22:34:34 10° SW 22:44:05 36° SSE 22:50:10 10° E visible
23 Apr - 00:45:22 10° WSW 00:52:58 52° S 00:57:48 10° ESE visible
23 Apr - 02:56:04 10° W 03:01:00 36° SSW 03:04:48 10° SE night (unlit)
23 Apr - 20:42:50 10° SSW 20:52:29 24° SSE 20:59:24 10° ESE visible
23 Apr - 22:52:13 10° SW 23:02:11 44° SSE 23:08:20 10° E visible
24 Apr - 01:03:31 10° WSW 01:10:59 54° S 01:15:45 10° ESE visible
24 Apr - 03:14:21 10° W 03:18:52 29° SSW 03:22:27 10° SE night (unlit)
24 Apr - 18:55:15 10° SSE 19:00:15 12° SSE 19:04:40 10° SE daylight
24 Apr - 20:59:33 10° SSW 21:10:38 31° SSE 21:18:05 10° E visible
24 Apr - 23:10:06 10° WSW 23:20:17 51° S 23:26:24 10° E visible
25 Apr - 01:21:43 10° W 01:28:58 52° S 01:33:40 10° ESE visible
25 Apr - 03:32:49 10° WSW 03:36:38 21° SSW 03:39:49 10° SSE night (unlit)
25 Apr - 19:09:20 10° S 19:18:24 18° SSE 19:25:39 10° ESE daylight
25 Apr - 21:16:46 10° SW 21:28:46 39° SSE 21:36:29 10° E visible
25 Apr - 23:28:10 10° WSW 23:38:21 57° S 23:44:25 10° E visible
26 Apr - 01:39:58 10° W 01:46:55 47° SSW 01:51:30 10° ESE visible
26 Apr - 03:51:39 10° WSW 03:54:21 15° SSW 03:56:44 10° S night (unlit)
26 Apr - 19:25:06 10° SSW 19:36:32 25° SSE 19:45:04 10° ESE daylight
26 Apr - 21:34:19 10° SW 21:46:54 46° SSE 21:54:42 10° E visible
26 Apr - 23:46:21 10° WSW 23:56:25 60° S 00:02:24 10° ESE visible
27 Apr - 01:58:15 10° W 02:04:49 39° SSW 02:09:14 10° SE night (unlit)
27 Apr - 17:38:49 10° SSE 17:43:54 12° SE 17:48:35 10° ESE daylight
27 Apr - 19:41:39 10° SSW 19:54:39 32° SSE 20:03:52 10° E daylight
27 Apr - 21:52:08 10° WSW 22:05:01 54° SSE 22:12:47 10° E visible
28 Apr - 00:04:35 10° W 00:14:27 60° S 00:20:20 10° ESE visible
28 Apr - 02:16:38 10° W 02:22:37 31° SSW 02:26:48 10° SE night (unlit)
28 Apr - 17:52:12 10° S 18:01:57 18° SE 18:10:15 10° ESE daylight
28 Apr - 19:58:41 10° SW 20:12:46 40° SSE 20:22:21 10° E daylight
28 Apr - 22:10:10 10° WSW 22:23:07 60° S 22:30:51 10° E visible
29 Apr - 00:22:53 10° W 00:32:28 57° S 00:38:13 10° ESE visible
29 Apr - 02:35:11 10° W 02:40:18 23° SSW 02:44:07 10° SSE night (unlit)
29 Apr - 18:07:39 10° SSW 18:20:00 25° SSE 18:29:59 10° E daylight
29 Apr - 20:16:06 10° SW 20:30:54 48° SSE 20:40:37 10° E visible
29 Apr - 22:28:20 10° WSW 22:41:15 64° S 22:48:51 10° E visible
30 Apr - 00:41:13 10° W 00:50:25 51° SSW 00:56:02 10° ESE visible
30 Apr - 02:54:06 10° WSW 02:57:53 16° SW 03:00:58 10° S night (unlit)
30 Apr - 16:24:51 10° SE 16:27:14 10° SE 16:29:34 10° SE daylight
30 Apr - 18:23:56 10° SSW 18:38:03 32° SSE 18:48:59 10° E daylight
30 Apr - 20:33:49 10° SW 20:49:02 55° SSE 20:58:47 10° E visible
30 Apr - 22:46:36 10° W 22:59:21 66° S 23:06:49 10° ESE visible
01 May - 00:59:35 10° W 01:08:16 43° SSW 01:13:43 10° SE visible
01 May - 03:14:38 10° SW 03:15:24 10° SW 03:16:07 10° SW night (unlit)
01 May - 16:35:58 10° S 16:45:10 16° SE 16:53:37 10° ESE daylight
01 May - 18:40:47 10° SSW 18:56:06 39° SSE 19:07:36 10° E daylight
01 May - 20:51:45 10° WSW 21:07:10 61° S 21:16:53 10° E visible
01 May - 23:04:56 10° W 23:17:26 64° S 23:24:45 10° ESE visible
